Weather in Maardu

Estonia     59°27′45″N   24°57′57″E
temp.,
°C
wind,
m/s
gust,
m/s
humid.,
%
clouds,
%
prec.,
mm/h
press.,
hPa
HPBL,
m
11 april, sun
sun1100:00+1ssw613814 0.0 1016359
03:00+1ssw614824 0.0 1018363
06:00+1ssw612845 0.0 1019306
09:00+3ssw610750 0.0 1021318
12:00+7sw455821 0.0 1023596
15:00+7nnw125658 0.0 10241121
18:00+6ene3663100 0.0 1024373
21:00+5ese4858100 0.0 1024223
12 april, mon
mon1200:00+4ese61288100 0.9 1023358
03:00+6se5129298 2.4 1020300
06:00+6sse61389100 0.0 1019271
09:00+8sse61377100 0.0 1018383
12:00+11s71267100 0.0 1018481
15:00+12s61160100 0.0 1018815
18:00+11ssw5862100 0.0 1017419
21:00+9ssw4867100 0.0 1018275
13 april, tue
tue1300:00+8ssw51083100 0.2 1017517
03:00+5wnw4696100 1.0 1017193
06:00+4w3688100 0.9 1018293
09:00+5sw3583100 1.1 1018323
12:00+6w5770100 0.0 1019864
15:00+6w6862100 0.0 1020967
18:00+5w596511 0.0 1021884
21:00+3w4877100 0.0 1022214
14 april, wed
wed1400:00+2wsw598532 0.0 1023483
03:00+3w586860 0.0 1023626
06:00+1wsw368528 0.0 1023125
09:00+3nw35755 0.0 1025369
12:00+4nw346448 0.0 1026492
15:00+4wnw456267 0.0 1026575
18:00+4wnw466686 0.0 1026306
21:00+2w357999 0.0 102781
15 april, thu
thu1500:00+2nne367622 0.0 102786
03:00+2n478140 0.0 1028121
06:00+1n468415 0.0 1028120
09:00+3nne35741 0.0 1029245
12:00+4nne35671 0.0 1030399
15:00+5ne35600 0.0 1030414
18:00+5ne35601 0.0 1030320
21:00+3ne23705 0.0 103243